Home   Weather   Bregenz   Past weeks

Flag for Austria Past Weather in Bregenz, Vorarlberg, Austria — Yesterday and Last 2 Weeks

Now
64 °F

Mild.


Feels Like: 64 °F
Forecast: 59 / 81 °F
Wind: 2 mph from Southwest

Location: Bregenz

Current Time: Jul 28, 2017 at 2:55:24 am

Latest Report: Jul 28, 2017 at 2:00 am


Visibility: N/A

Pressure: 29.90 "Hg

Humidity: 89%

Dew Point: 60 °F

Location of BregenzLocation

Past Weather in Bregenz — Graph

°F

Bregenz Temperature Yesterday

Maximum temperature yesterday: 70 °F (at 5:00 pm)
Minimum temperature yesterday: 56 °F (at 4:00 am)
Average temperature yesterday: 62 °F

High & Low Weather Summary for the Past Weeks

 TemperatureHumidityPressure
High88 °F (Jul 19, 4:00 pm)95% (Jul 13, 7:00 am)30.28 "Hg (Jul 13, 7:00 am)
Low54 °F (Jul 16, 6:00 am)30% (Jul 16, 7:00 pm)29.73 "Hg (Jul 21, 9:00 pm)
Average66 °F73%29.99 "Hg
* Reported Jul 13 1:00 am — Jul 28 1:00 am, Bregenz. Weather by CustomWeather, © 2017

Note: Actual official high and low records may vary slightly from our data, if they occured in-between our weather recording intervals... More about our weather records

Advertising

Bregenz Weather History for the Previous 24 Hours

Scroll right to see more
 ConditionsComfort  
Time TempWeatherWind HumidityBarometerVisibility
1:00 am
Fri, Jul 28
65 °FFog.5 mph82%29.86 "HgN/A
12:00 am65 °FMild.3 mph82%29.85 "HgN/A
11:00 pm
Thu, Jul 27
64 °FMild.2 mph88%29.87 "HgN/A
10:00 pm63 °FMild.1 mph92%29.86 "HgN/A
9:00 pm64 °FSprinkles. Cloudy.2 mph90%29.85 "HgN/A
8:00 pm67 °FMild.2 mph82%29.84 "HgN/A
7:00 pm69 °FMild.1 mph71%29.83 "HgN/A
6:00 pm69 °FMild.2 mph69%29.83 "HgN/A
5:00 pm70 °FMild.2 mph71%29.85 "HgN/A
4:00 pm68 °FMild.3 mph73%29.86 "HgN/A
3:00 pm64 °FMild.5 mph80%29.90 "HgN/A
2:00 pm61 °FFog.6 mph85%29.92 "Hg6 mi
1:00 pm58 °FCool.5 mph90%29.96 "HgN/A
12:00 pm60 °FCool.2 mph74%29.96 "HgN/A
11:00 am61 °FLow clouds.2 mph75%29.95 "Hg2 mi
10:00 am61 °FCool.3 mph69%29.94 "HgN/A
9:00 am59 °FCool.2 mph73%29.94 "HgN/A
8:00 am58 °FOvercast.6 mph73%29.93 "Hg17 mi
7:00 am58 °FOvercast.8 mph73%29.92 "Hg17 mi
6:00 am58 °FCool.8 mph75%29.92 "HgN/A
5:00 am57 °FCool.8 mph77%29.93 "HgN/A
4:00 am56 °FCool.6 mph82%29.94 "HgN/A
3:00 am58 °FCool.7 mph79%29.95 "HgN/A
2:00 am58 °FCool.6 mph79%29.95 "HgN/A
Weather by CustomWeather, © 2017

See weather overviewHow to use our weather pages